| time (UTC) | temp F | wind direction | speed knots | gust knots | rain 1hr in | rain 24hr in | rain mn in | humidity % | barometer mb |
| 20260904071457 | 80 | 166 | 9.6 | 10.4 | 0.00 | 0.00 | 0.00 | 79 | 1013.4 |
| 20260904070957 | 79 | 172 | 7.8 | 9.6 | 0.00 | 0.00 | 0.00 | 78 | 1013.4 |
| 20260904070027 | 79 | 145 | 6.1 | 8.7 | 0.00 | 0.00 | 0.00 | 76 | 1013.5 |
| 20260904065457 | 79 | 149 | 7.0 | 7.8 | 0.00 | 0.00 | 0.00 | 76 | 1013.5 |
| 20260904064957 | 79 | 149 | 7.0 | 10.4 | 0.00 | 0.00 | 0.00 | 75 | 1013.5 |
| 20260904064457 | 79 | 151 | 7.8 | 10.4 | 0.00 | 0.00 | 0.00 | 75 | 1013.5 |
| 20260904062957 | 79 | 149 | 7.8 | 10.4 | 0.00 | 0.00 | 0.00 | 74 | 1013.5 |
| 20260904062527 | 79 | 154 | 8.7 | 9.6 | 0.00 | 0.00 | 0.00 | 74 | 1013.5 |
| 20260904062026 | 79 | 140 | 7.8 | 8.7 | 0.00 | 0.00 | 0.00 | 74 | 1013.5 |
| 20260904061526 | 79 | 139 | 7.8 | 8.7 | 0.00 | 0.00 | 0.00 | 74 | 1013.5 |
| 20260904060526 | 80 | 154 | 7.0 | 7.8 | 0.00 | 0.00 | 0.00 | 74 | 1013.5 |
| 20260904060026 | 80 | 125 | 6.1 | 7.8 | 0.00 | 0.00 | 0.00 | 74 | 1013.5 |
| 20260904055526 | 80 | 151 | 7.0 | 7.8 | 0.00 | 0.00 | 0.00 | 74 | 1013.6 |
| 20260904054956 | 80 | 128 | 5.2 | 9.6 | 0.00 | 0.00 | 0.00 | 74 | 1013.6 |
| 20260904054457 | 80 | 145 | 6.1 | 9.6 | 0.00 | 0.00 | 0.00 | 73 | 1013.6 |
| 20260904053956 | 80 | 154 | 7.8 | 9.6 | 0.00 | 0.00 | 0.00 | 73 | 1013.5 |
| 20260904053456 | 80 | 154 | 8.7 | 9.6 | 0.00 | 0.00 | 0.00 | 73 | 1013.5 |
| 20260904052957 | 80 | 141 | 9.6 | 10.4 | 0.00 | 0.00 | 0.00 | 73 | 1013.6 |
| 20260904052456 | 80 | 144 | 7.0 | 10.4 | 0.00 | 0.00 | 0.00 | 73 | 1013.6 |
| 20260904051956 | 80 | 146 | 7.8 | 9.6 | 0.00 | 0.00 | 0.00 | 73 | 1013.6 |
| 20260904051456 | 80 | 161 | 7.8 | 10.4 | 0.00 | 0.00 | 0.00 | 73 | 1013.6 |
| 20260904050956 | 80 | 145 | 9.6 | 10.4 | 0.00 | 0.00 | 0.00 | 73 | 1013.4 |
| 20260904050456 | 80 | 129 | 10.4 | 10.4 | 0.00 | 0.00 | 0.00 | 73 | 1013.4 |
| 20260904050029 | 80 | 133 | 7.8 | 10.4 | 0.00 | 0.00 | 0.00 | 73 | 1013.4 |
| 20260904045458 | 80 | 137 | 6.1 | 10.4 | 0.00 | 0.00 | 0.00 | 72 | 1013.4 |
| 20260904044955 | 80 | 127 | 8.7 | 11.3 | 0.00 | 0.00 | 0.00 | 72 | 1013.4 |
| 20260904044456 | 81 | 131 | 7.8 | 11.3 | 0.00 | 0.00 | 0.00 | 72 | 1013.3 |
| 20260904043527 | 81 | 0 | 0.0 | 13.0 | 0.00 | 0.00 | 0.00 | 70 | 1013.2 |
| 20260904043025 | 81 | 137 | 9.6 | 12.2 | 0.00 | 0.00 | 0.00 | 70 | 1013.2 |
| 20260904042456 | 81 | 0 | 0.0 | 11.3 | 0.00 | 0.00 | 0.00 | 70 | 1013.2 |
| 20260904041955 | 81 | 142 | 9.6 | 11.3 | 0.00 | 0.00 | 0.00 | 70 | 1013.2 |
| 20260904041455 | 82 | 139 | 8.7 | 11.3 | 0.00 | 0.00 | 0.00 | 69 | 1013.2 |
| 20260904040525 | 82 | 0 | 0.0 | 11.3 | 0.00 | 0.00 | 0.00 | 70 | 1013.2 |
| 20260904040025 | 82 | 141 | 7.8 | 9.6 | 0.00 | 0.00 | 0.00 | 71 | 1013.3 |
| 20260904035525 | 82 | 134 | 7.8 | 13.0 | 0.00 | 0.00 | 0.00 | 72 | 1013.4 |
| 20260904035025 | 82 | 136 | 8.7 | 13.0 | 0.00 | 0.00 | 0.00 | 72 | 1013.4 |
| 20260904034526 | 82 | 142 | 10.4 | 11.3 | 0.00 | 0.00 | 0.00 | 72 | 1013.3 |
| 20260904034024 | 82 | 137 | 9.6 | 10.4 | 0.00 | 0.00 | 0.00 | 73 | 1013.4 |
| 20260904033025 | 82 | 156 | 7.8 | 11.3 | 0.00 | 0.00 | 0.00 | 73 | 1013.3 |
| 20260904032524 | 82 | 156 | 10.4 | 11.3 | 0.00 | 0.00 | 0.00 | 72 | 1013.3 |
| 20260904031025 | 83 | 0 | 0.0 | 11.3 | 0.00 | 0.00 | 0.00 | 72 | 1013.2 |
| 20260904030526 | 83 | 0 | 0.0 | 10.4 | 0.00 | 0.00 | 0.00 | 72 | 1013.2 |
| 20260904030024 | 83 | 0 | 0.0 | 0.0 | 0.00 | 0.00 | 0.00 | 71 | 1013.2 |
| 20260904025524 | 83 | 0 | 0.0 | 0.0 | 0.00 | 0.00 | 0.00 | 71 | 1013.1 |
| 20260904025024 | 84 | 0 | 0.0 | 11.3 | 0.00 | 0.00 | 0.00 | 70 | 1013.0 |
| 20260904024456 | 84 | 0 | 0.0 | 13.9 | 0.00 | 0.00 | 0.00 | 69 | 1012.9 |
| 20260904024024 | 84 | 0 | 0.0 | 13.9 | 0.00 | 0.00 | 0.00 | 66 | 1013.0 |
| 20260904022955 | 85 | 0 | 0.0 | 13.9 | 0.00 | 0.00 | 0.00 | 65 | 1012.7 |
| 20260904022456 | 85 | 119 | 12.2 | 13.9 | 0.00 | 0.00 | 0.00 | 64 | 1012.6 |
| 20260904022024 | 85 | 123 | 10.4 | 13.0 | 0.00 | 0.00 | 0.00 | 64 | 1012.6 |
| 20260904021526 | 85 | 0 | 0.0 | 13.0 | 0.00 | 0.00 | 0.00 | 64 | 1012.5 |
| 20260904020524 | 85 | 120 | 13.0 | 13.9 | 0.00 | 0.00 | 0.00 | 64 | 1012.2 |
| 20260904020025 | 86 | 0 | 0.0 | 13.0 | 0.00 | 0.00 | 0.00 | 64 | 1012.1 |
| 20260904014524 | 86 | 121 | 13.0 | 13.9 | 0.00 | 0.00 | 0.00 | 64 | 1011.8 |
| 20260904014023 | 86 | 132 | 10.4 | 13.9 | 0.00 | 0.00 | 0.00 | 64 | 1011.8 |
| 20260904013525 | 86 | 119 | 12.2 | 14.8 | 0.00 | 0.00 | 0.00 | 64 | 1011.7 |
| 20260904012026 | 87 | 121 | 13.0 | 15.6 | 0.00 | 0.00 | 0.00 | 63 | 1011.5 |
| 20260904011023 | 87 | 0 | 0.0 | 15.6 | 0.00 | 0.00 | 0.00 | 63 | 1011.4 |
| 20260904010454 | 87 | 0 | 0.0 | 16.5 | 0.00 | 0.00 | 0.00 | 63 | 1011.5 |
| 20260904005953 | 87 | 123 | 12.2 | 16.5 | 0.00 | 0.00 | 0.00 | 62 | 1011.4 |
| 20260904005525 | 87 | 0 | 0.0 | 16.5 | 0.00 | 0.00 | 0.00 | 62 | 1011.3 |
| 20260904004955 | 87 | 139 | 9.6 | 13.9 | 0.00 | 0.00 | 0.00 | 62 | 1011.3 |
| 20260904004454 | 88 | 152 | 8.7 | 13.9 | 0.00 | 0.00 | 0.00 | 62 | 1011.4 |
| 20260904004025 | 88 | 141 | 9.6 | 13.9 | 0.00 | 0.00 | 0.00 | 62 | 1011.3 |
| 20260904003523 | 88 | 132 | 11.3 | 13.9 | 0.00 | 0.00 | 0.00 | 62 | 1011.3 |
| 20260904002953 | 88 | 137 | 12.2 | 13.9 | 0.00 | 0.00 | 0.00 | 61 | 1011.3 |
| 20260904002023 | 89 | 132 | 8.7 | 18.2 | 0.00 | 0.00 | 0.00 | 61 | 1011.2 |
| 20260904000523 | 89 | 130 | 7.8 | 14.8 | 0.00 | 0.00 | 0.00 | 61 | 1011.1 |
| 20260904000023 | 89 | 118 | 9.6 | 14.8 | 0.00 | 0.00 | 0.00 | 61 | 1011.1 |
| 20260903235523 | 89 | 131 | 6.1 | 15.6 | 0.00 | 0.00 | 0.00 | 62 | 1011.1 |
| 20260903235023 | 89 | 100 | 10.4 | 15.6 | 0.00 | 0.00 | 0.00 | 61 | 1011.1 |
| 20260903234524 | 89 | 116 | 12.2 | 13.0 | 0.00 | 0.00 | 0.00 | 61 | 1011.1 |
| 20260903233523 | 89 | 125 | 7.8 | 8.7 | 0.00 | 0.00 | 0.00 | 59 | 1011.2 |
| 20260903233024 | 89 | 153 | 6.1 | 13.0 | 0.00 | 0.00 | 0.00 | 60 | 1011.2 |
| 20260903232454 | 89 | 146 | 5.2 | 13.0 | 0.00 | 0.00 | 0.00 | 60 | 1011.1 |
| 20260903231953 | 89 | 118 | 12.2 | 13.0 | 0.00 | 0.00 | 0.00 | 60 | 1011.1 |
| 20260903231522 | 89 | 138 | 7.8 | 17.4 | 0.00 | 0.00 | 0.00 | 60 | 1011.0 |
| 20260903230954 | 89 | 138 | 7.8 | 17.4 | 0.00 | 0.00 | 0.00 | 60 | 1010.9 |
| 20260903230452 | 90 | 119 | 17.4 | 17.4 | 0.00 | 0.00 | 0.00 | 59 | 1010.8 |
| 20260903225522 | 91 | 144 | 8.7 | 13.0 | 0.00 | 0.00 | 0.00 | 57 | 1010.8 |
| 20260903225023 | 91 | 127 | 8.7 | 13.0 | 0.00 | 0.00 | 0.00 | 57 | 1010.7 |
| 20260903224522 | 91 | 171 | 7.0 | 14.8 | 0.00 | 0.00 | 0.00 | 57 | 1010.7 |
| 20260903224022 | 91 | 132 | 9.6 | 15.6 | 0.00 | 0.00 | 0.00 | 57 | 1010.8 |
| 20260903223022 | 91 | 162 | 9.6 | 18.2 | 0.00 | 0.00 | 0.00 | 57 | 1010.7 |
| 20260903222524 | 92 | 141 | 10.4 | 18.2 | 0.00 | 0.00 | 0.00 | 57 | 1010.6 |
| 20260903222022 | 91 | 133 | 7.8 | 14.8 | 0.00 | 0.00 | 0.00 | 57 | 1010.7 |
| 20260903221522 | 92 | 171 | 7.0 | 18.2 | 0.00 | 0.00 | 0.00 | 56 | 1010.7 |
| 20260903221022 | 92 | 163 | 11.3 | 18.2 | 0.00 | 0.00 | 0.00 | 56 | 1010.7 |
| 20260903220522 | 91 | 140 | 14.8 | 17.4 | 0.00 | 0.00 | 0.00 | 57 | 1010.6 |
| 20260903220022 | 91 | 138 | 9.6 | 17.4 | 0.00 | 0.00 | 0.00 | 58 | 1010.8 |
| 20260903214952 | 92 | 188 | 10.4 | 15.6 | 0.00 | 0.00 | 0.00 | 57 | 1010.7 |
| 20260903214522 | 92 | 175 | 10.4 | 15.6 | 0.00 | 0.00 | 0.00 | 58 | 1010.7 |
| 20260903214022 | 91 | 144 | 11.3 | 15.6 | 0.00 | 0.00 | 0.00 | 58 | 1010.7 |
| 20260903213021 | 91 | 133 | 14.8 | 17.4 | 0.00 | 0.00 | 0.00 | 59 | 1010.8 |
| 20260903212452 | 91 | 128 | 17.4 | 18.2 | 0.00 | 0.00 | 0.00 | 59 | 1010.7 |
| 20260903212022 | 90 | 131 | 11.3 | 18.2 | 0.00 | 0.00 | 0.00 | 62 | 1010.9 |
| 20260903211521 | 89 | 118 | 14.8 | 17.4 | 0.00 | 0.00 | 0.00 | 63 | 1010.9 |
| 20260903211021 | 90 | 146 | 13.9 | 17.4 | 0.00 | 0.00 | 0.00 | 62 | 1011.0 |
| 20260903210521 | 90 | 145 | 11.3 | 17.4 | 0.00 | 0.00 | 0.00 | 62 | 1011.0 |
| 20260903210021 | 90 | 119 | 15.6 | 17.4 | 0.00 | 0.00 | 0.00 | 62 | 1011.1 |
| 20260903205521 | 89 | 140 | 10.4 | 17.4 | 0.00 | 0.00 | 0.00 | 63 | 1011.2 |
| 20260903204521 | 90 | 141 | 9.6 | 13.9 | 0.00 | 0.00 | 0.00 | 61 | 1011.3 |
| 20260903204021 | 90 | 120 | 8.7 | 12.2 | 0.00 | 0.00 | 0.00 | 61 | 1011.3 |
| 20260903203520 | 90 | 175 | 8.7 | 15.6 | 0.00 | 0.00 | 0.00 | 62 | 1011.4 |
| 20260903203020 | 90 | 142 | 9.6 | 15.6 | 0.00 | 0.00 | 0.00 | 62 | 1011.5 |
| 20260903202020 | 90 | 126 | 7.0 | 17.4 | 0.00 | 0.00 | 0.00 | 61 | 1011.5 |
| 20260903201020 | 91 | 160 | 9.6 | 18.2 | 0.00 | 0.00 | 0.00 | 60 | 1011.5 |
| 20260903200520 | 90 | 119 | 13.9 | 18.2 | 0.00 | 0.00 | 0.00 | 61 | 1011.5 |
| 20260903195520 | 92 | 157 | 8.7 | 14.8 | 0.00 | 0.00 | 0.00 | 57 | 1011.7 |
| 20260903195020 | 91 | 165 | 9.6 | 13.9 | 0.00 | 0.00 | 0.00 | 57 | 1011.8 |
| 20260903194520 | 91 | 164 | 13.0 | 13.0 | 0.00 | 0.00 | 0.00 | 57 | 1011.8 |
| 20260903194020 | 91 | 142 | 10.4 | 13.0 | 0.00 | 0.00 | 0.00 | 58 | 1011.9 |
| 20260903193520 | 91 | 147 | 8.7 | 14.8 | 0.00 | 0.00 | 0.00 | 57 | 1011.9 |
| 20260903193020 | 91 | 153 | 8.7 | 14.8 | 0.00 | 0.00 | 0.00 | 58 | 1012.0 |
| 20260903192520 | 91 | 121 | 6.1 | 14.8 | 0.00 | 0.00 | 0.00 | 56 | 1012.1 |
| 20260903192020 | 91 | 193 | 5.2 | 13.9 | 0.00 | 0.00 | 0.00 | 59 | 1012.2 |
| 20260903191520 | 90 | 164 | 10.4 | 14.8 | 0.00 | 0.00 | 0.00 | 60 | 1012.3 |
| 20260903191020 | 90 | 145 | 9.6 | 14.8 | 0.00 | 0.00 | 0.00 | 61 | 1012.4 |
| 20260903190520 | 89 | 173 | 6.1 | 13.0 | 0.00 | 0.00 | 0.00 | 61 | 1012.5 |
| 20260903190020 | 89 | 131 | 7.8 | 13.0 | 0.00 | 0.00 | 0.00 | 61 | 1012.6 |
| 20260903185521 | 89 | 171 | 10.4 | 15.6 | 0.00 | 0.00 | 0.00 | 61 | 1012.7 |
| 20260903185019 | 89 | 182 | 7.0 | 15.6 | 0.00 | 0.00 | 0.00 | 61 | 1012.8 |
| 20260903184520 | 89 | 131 | 4.3 | 19.1 | 0.00 | 0.00 | 0.00 | 62 | 1012.8 |
| 20260903184019 | 89 | 160 | 12.2 | 19.1 | 0.00 | 0.00 | 0.00 | 61 | 1012.9 |
| 20260903183519 | 89 | 131 | 11.3 | 17.4 | 0.00 | 0.00 | 0.00 | 61 | 1012.9 |
| 20260903183020 | 89 | 145 | 6.1 | 17.4 | 0.00 | 0.00 | 0.00 | 62 | 1013.0 |
| 20260903182519 | 90 | 139 | 10.4 | 17.4 | 0.00 | 0.00 | 0.00 | 62 | 1013.0 |
| 20260903182019 | 88 | 119 | 9.6 | 17.4 | 0.00 | 0.00 | 0.00 | 64 | 1013.1 |
| 20260903181519 | 88 | 129 | 8.7 | 15.6 | 0.00 | 0.00 | 0.00 | 63 | 1013.2 |
| 20260903181019 | 88 | 142 | 9.6 | 17.4 | 0.00 | 0.00 | 0.00 | 64 | 1013.2 |
| 20260903180519 | 88 | 0 | 0.0 | 17.4 | 0.00 | 0.00 | 0.00 | 65 | 1013.1 |
| 20260903175519 | 88 | 158 | 10.4 | 14.8 | 0.00 | 0.00 | 0.00 | 64 | 1013.3 |
| 20260903175019 | 88 | 158 | 11.3 | 13.9 | 0.00 | 0.00 | 0.00 | 64 | 1013.4 |
| 20260903174519 | 87 | 130 | 13.0 | 13.0 | 0.00 | 0.00 | 0.00 | 65 | 1013.4 |
| 20260903174019 | 87 | 176 | 7.8 | 14.8 | 0.00 | 0.00 | 0.00 | 66 | 1013.5 |
| 20260903173519 | 87 | 140 | 8.7 | 16.5 | 0.00 | 0.00 | 0.00 | 66 | 1013.5 |
| 20260903173019 | 87 | 119 | 12.2 | 16.5 | 0.00 | 0.00 | 0.00 | 66 | 1013.6 |
| 20260903172519 | 87 | 172 | 13.9 | 14.8 | 0.00 | 0.00 | 0.00 | 67 | 1013.6 |
| 20260903172018 | 87 | 111 | 13.0 | 14.8 | 0.00 | 0.00 | 0.00 | 65 | 1013.6 |
| 20260903171518 | 87 | 162 | 9.6 | 15.6 | 0.00 | 0.00 | 0.00 | 66 | 1013.7 |
| 20260903171018 | 87 | 130 | 11.3 | 17.4 | 0.00 | 0.00 | 0.00 | 66 | 1013.7 |
| 20260903170518 | 86 | 158 | 11.3 | 17.4 | 0.00 | 0.00 | 0.00 | 67 | 1013.7 |
| 20260903170018 | 86 | 157 | 11.3 | 13.0 | 0.00 | 0.00 | 0.00 | 68 | 1013.8 |
| 20260903164518 | 86 | 135 | 7.8 | 13.0 | 0.00 | 0.00 | 0.00 | 68 | 1013.9 |
| 20260903164019 | 87 | 163 | 9.6 | 13.9 | 0.00 | 0.00 | 0.00 | 66 | 1013.8 |
| 20260903163518 | 87 | 185 | 5.2 | 13.9 | 0.00 | 0.00 | 0.00 | 67 | 1013.9 |
| 20260903162518 | 86 | 128 | 13.0 | 13.0 | 0.00 | 0.00 | 0.00 | 67 | 1013.9 |
| 20260903162018 | 86 | 107 | 9.6 | 12.2 | 0.00 | 0.00 | 0.00 | 68 | 1014.0 |
| 20260903161018 | 84 | 165 | 3.5 | 13.9 | 0.00 | 0.00 | 0.00 | 70 | 1014.0 |
| 20260903160518 | 85 | 168 | 7.0 | 13.9 | 0.00 | 0.00 | 0.00 | 70 | 1014.0 |
| 20260903160018 | 85 | 156 | 11.3 | 13.9 | 0.00 | 0.00 | 0.00 | 69 | 1014.0 |
| 20260903155518 | 85 | 140 | 6.1 | 13.0 | 0.00 | 0.00 | 0.00 | 71 | 1014.0 |
| 20260903155018 | 84 | 161 | 7.0 | 12.2 | 0.00 | 0.00 | 0.00 | 71 | 1014.0 |
| 20260903154517 | 84 | 144 | 7.0 | 13.0 | 0.00 | 0.00 | 0.00 | 72 | 1014.0 |
| 20260903154017 | 83 | 158 | 8.7 | 13.0 | 0.00 | 0.00 | 0.00 | 73 | 1013.9 |
| 20260903153517 | 83 | 148 | 12.2 | 12.2 | 0.00 | 0.00 | 0.00 | 75 | 1013.9 |
| 20260903153018 | 83 | 157 | 12.2 | 12.2 | 0.00 | 0.00 | 0.00 | 74 | 1013.9 |
| 20260903152517 | 82 | 0 | 0.0 | 12.2 | 0.00 | 0.00 | 0.00 | 75 | 1013.9 |
| 20260903151517 | 82 | 128 | 7.0 | 14.8 | 0.00 | 0.00 | 0.00 | 75 | 1014.0 |
| 20260903151018 | 82 | 162 | 9.6 | 14.8 | 0.00 | 0.00 | 0.00 | 75 | 1013.9 |
| 20260903150517 | 83 | 107 | 11.3 | 13.9 | 0.00 | 0.00 | 0.00 | 74 | 1013.9 |
| 20260903150017 | 82 | 117 | 10.4 | 13.0 | 0.00 | 0.00 | 0.00 | 74 | 1014.0 |
| 20260903145517 | 82 | 124 | 9.6 | 13.9 | 0.00 | 0.00 | 0.00 | 74 | 1014.0 |
| 20260903145017 | 82 | 123 | 10.4 | 13.9 | 0.00 | 0.00 | 0.00 | 74 | 1014.0 |
| 20260903144517 | 82 | 111 | 11.3 | 13.0 | 0.00 | 0.00 | 0.00 | 74 | 1014.1 |
| 20260903144017 | 82 | 0 | 0.0 | 13.0 | 0.00 | 0.00 | 0.00 | 74 | 1014.0 |
| 20260903143517 | 82 | 112 | 7.0 | 13.0 | 0.00 | 0.00 | 0.00 | 75 | 1014.1 |
| 20260903143017 | 82 | 0 | 0.0 | 13.0 | 0.00 | 0.00 | 0.00 | 75 | 1014.0 |
| 20260903142517 | 81 | 118 | 7.8 | 12.2 | 0.00 | 0.00 | 0.00 | 75 | 1014.0 |
| 20260903142016 | 81 | 141 | 7.8 | 11.3 | 0.00 | 0.00 | 0.00 | 76 | 1013.9 |
| 20260903141516 | 81 | 126 | 7.0 | 9.6 | 0.00 | 0.00 | 0.00 | 76 | 1014.0 |
| 20260903141016 | 81 | 121 | 7.8 | 9.6 | 0.00 | 0.00 | 0.00 | 77 | 1014.0 |
| 20260903140517 | 81 | 114 | 5.2 | 9.6 | 0.00 | 0.00 | 0.00 | 77 | 1014.0 |
| 20260903140016 | 80 | 115 | 6.1 | 8.7 | 0.00 | 0.00 | 0.00 | 79 | 1014.1 |
| 20260903135516 | 80 | 142 | 6.1 | 9.6 | 0.00 | 0.00 | 0.00 | 80 | 1014.1 |
| 20260903135016 | 79 | 93 | 7.0 | 11.3 | 0.00 | 0.00 | 0.00 | 82 | 1014.1 |
| 20260903134016 | 79 | 76 | 9.6 | 11.3 | 0.00 | 0.00 | 0.00 | 84 | 1014.0 |
| 20260903133516 | 79 | 87 | 7.0 | 9.6 | 0.00 | 0.00 | 0.00 | 84 | 1014.1 |
| 20260903133016 | 79 | 95 | 6.1 | 8.7 | 0.00 | 0.00 | 0.00 | 86 | 1014.1 |
| 20260903132516 | 78 | 84 | 7.8 | 12.2 | 0.00 | 0.00 | 0.00 | 87 | 1014.1 |
| 20260903132016 | 78 | 91 | 7.0 | 12.2 | 0.00 | 0.00 | 0.00 | 88 | 1014.1 |
| 20260903131015 | 77 | 105 | 7.8 | 9.6 | 0.00 | 0.00 | 0.00 | 89 | 1014.2 |
| 20260903130517 | 77 | 84 | 7.8 | 9.6 | 0.00 | 0.00 | 0.00 | 89 | 1014.2 |
| 20260903130016 | 77 | 76 | 7.0 | 7.0 | 0.00 | 0.00 | 0.00 | 87 | 1014.2 |
| 20260903125015 | 76 | 91 | 6.1 | 6.1 | 0.00 | 0.00 | 0.00 | 88 | 1014.2 |
| 20260903124515 | 76 | 94 | 4.3 | 5.2 | 0.00 | 0.00 | 0.00 | 88 | 1014.0 |
| 20260903124016 | 76 | 93 | 3.5 | 5.2 | 0.00 | 0.00 | 0.00 | 88 | 1013.9 |
| 20260903123515 | 76 | 90 | 2.6 | 3.5 | 0.00 | 0.00 | 0.00 | 88 | 1013.7 |
| 20260903123015 | 75 | 68 | 1.7 | 4.3 | 0.00 | 0.00 | 0.00 | 89 | 1013.6 |
| 20260903121515 | 76 | 104 | 6.1 | 7.0 | 0.00 | 0.00 | 0.00 | 88 | 1013.7 |
| 20260903121015 | 77 | 117 | 2.6 | 2.6 | 0.00 | 0.00 | 0.00 | 86 | 1013.6 |
| 20260903120015 | 76 | 222 | 1.7 | 2.6 | 0.00 | 0.00 | 0.00 | 87 | 1013.5 |
| 20260903115515 | 76 | 126 | 0.9 | 3.5 | 0.00 | 0.00 | 0.00 | 88 | 1013.5 |
| 20260903115015 | 76 | 18 | 1.7 | 3.5 | 0.00 | 0.00 | 0.00 | 88 | 1013.4 |
| 20260903114515 | 76 | 34 | 2.6 | 4.3 | 0.00 | 0.00 | 0.00 | 88 | 1013.4 |
| 20260903114015 | 76 | 36 | 4.3 | 4.3 | 0.00 | 0.00 | 0.00 | 88 | 1013.4 |
| 20260903113515 | 76 | 81 | 2.6 | 5.2 | 0.00 | 0.00 | 0.00 | 87 | 1013.5 |
| 20260903113015 | 76 | 115 | 3.5 | 6.1 | 0.00 | 0.00 | 0.00 | 88 | 1013.6 |
| 20260903112515 | 76 | 105 | 4.3 | 6.1 | 0.00 | 0.00 | 0.00 | 88 | 1013.6 |
| 20260903111515 | 76 | 97 | 4.3 | 4.3 | 0.00 | 0.00 | 0.00 | 88 | 1013.5 |
| 20260903111015 | 76 | 84 | 4.3 | 4.3 | 0.00 | 0.00 | 0.00 | 88 | 1013.5 |
| 20260903110515 | 76 | 84 | 2.6 | 4.3 | 0.00 | 0.00 | 0.00 | 88 | 1013.5 |
| 20260903110014 | 76 | 84 | 2.6 | 5.2 | 0.00 | 0.00 | 0.00 | 88 | 1013.4 |
| 20260903105515 | 76 | 107 | 4.3 | 6.1 | 0.00 | 0.00 | 0.00 | 87 | 1013.4 |
| 20260903104515 | 76 | 99 | 4.3 | 7.0 | 0.00 | 0.00 | 0.00 | 87 | 1013.3 |
| 20260903104014 | 77 | 104 | 6.1 | 7.0 | 0.00 | 0.00 | 0.00 | 87 | 1013.3 |
| 20260903103515 | 77 | 103 | 5.2 | 7.8 | 0.00 | 0.00 | 0.00 | 86 | 1013.3 |
| 20260903102514 | 76 | 106 | 5.2 | 6.1 | 0.00 | 0.00 | 0.00 | 87 | 1013.4 |
| 20260903102044 | 76 | 86 | 3.5 | 3.5 | 0.00 | 0.00 | 0.00 | 86 | 1013.4 |
| 20260903101514 | 76 | 74 | 2.6 | 4.3 | 0.00 | 0.00 | 0.00 | 86 | 1013.5 |
| 20260903101014 | 77 | 90 | 3.5 | 5.2 | 0.00 | 0.00 | 0.00 | 85 | 1013.4 |
| 20260903100014 | 77 | 98 | 4.3 | 4.3 | 0.00 | 0.00 | 0.00 | 85 | 1013.5 |
| 20260903095014 | 76 | 101 | 3.5 | 3.5 | 0.00 | 0.00 | 0.00 | 86 | 1013.5 |
| 20260903094514 | 76 | 104 | 2.6 | 3.5 | 0.00 | 0.00 | 0.00 | 86 | 1013.4 |
| 20260903094014 | 76 | 45 | 3.5 | 3.5 | 0.00 | 0.00 | 0.00 | 86 | 1013.4 |
| 20260903093513 | 76 | 93 | 2.6 | 3.5 | 0.00 | 0.00 | 0.00 | 86 | 1013.3 |
| 20260903092513 | 76 | 180 | 1.7 | 2.6 | 0.00 | 0.00 | 0.00 | 86 | 1013.4 |
| 20260903092013 | 76 | 242 | 1.7 | 4.3 | 0.00 | 0.00 | 0.00 | 86 | 1013.4 |
| 20260903091513 | 76 | 246 | 4.3 | 4.3 | 0.00 | 0.00 | 0.00 | 86 | 1013.4 |
| 20260903090013 | 76 | 100 | 5.2 | 6.1 | 0.00 | 0.00 | 0.00 | 86 | 1013.3 |
| 20260903085513 | 76 | 85 | 4.3 | 6.1 | 0.00 | 0.00 | 0.00 | 85 | 1013.2 |
| 20260903084513 | 77 | 79 | 4.3 | 6.1 | 0.00 | 0.00 | 0.00 | 85 | 1013.2 |
| 20260903084013 | 77 | 86 | 4.3 | 6.1 | 0.00 | 0.00 | 0.00 | 84 | 1013.2 |
| 20260903083513 | 77 | 87 | 4.3 | 7.8 | 0.00 | 0.00 | 0.00 | 84 | 1013.2 |
| 20260903083013 | 77 | 83 | 6.1 | 8.7 | 0.00 | 0.00 | 0.00 | 84 | 1013.2 |
| 20260903082513 | 77 | 100 | 7.8 | 8.7 | 0.00 | 0.00 | 0.00 | 84 | 1013.3 |
| 20260903081513 | 77 | 93 | 6.1 | 7.8 | 0.00 | 0.00 | 0.00 | 82 | 1013.4 |
| 20260903080512 | 77 | 90 | 3.5 | 5.2 | 0.00 | 0.00 | 0.00 | 82 | 1013.4 |
| 20260903080012 | 77 | 89 | 4.3 | 5.2 | 0.00 | 0.00 | 0.00 | 82 | 1013.4 |
| 20260903075512 | 78 | 77 | 4.3 | 5.2 | 0.00 | 0.00 | 0.00 | 81 | 1013.3 |
| 20260903075012 | 78 | 99 | 4.3 | 7.0 | 0.00 | 0.00 | 0.00 | 81 | 1013.3 |
| 20260903074013 | 78 | 94 | 6.1 | 6.1 | 0.00 | 0.00 | 0.00 | 80 | 1013.3 |
| 20260903073013 | 78 | 102 | 6.1 | 6.1 | 0.00 | 0.00 | 0.00 | 80 | 1013.4 |
| 20260903072512 | 78 | 97 | 5.2 | 6.1 | 0.00 | 0.00 | 0.00 | 80 | 1013.3 |
| 20260903072012 | 78 | 98 | 3.5 | 7.0 | 0.00 | 0.00 | 0.00 | 79 | 1013.4 |